De Kooy, Netherlands

3:06 AM CEST on July 22, 2018 (GMT +0200)
De Kooy Navy

Weather History for EHKD - April, 2018

Change the Weather History Date:

Monday, April 16, 2018

  Actual Average Record
Temperature  
Mean Temperature 48 °F -  
Max Temperature 53 °F 54 °F 69 °F (2003)
Min Temperature 44 °F 44 °F 33 °F (2008)
Degree Days  
Heating Degree Days 16    
Moisture  
Dew Point 47 °F    
Average Humidity 88    
Maximum Humidity 100    
Minimum Humidity 74    
Precipitation  
Precipitation 0.02 in 0.06 in - ()
Sea Level Pressure  
Sea Level Pressure 29.93 in    
Wind  
Wind Speed 9 mph ()    
Max Wind Speed 20 mph    
Max Gust Speed -    
Visibility 5.8 miles    
Events Rain    
Averages and records for this station are not official NWS values.
T = Trace of Precipitation, MM = Missing Value Source: Averaged Metar Reports

Daily Weather History Graph

Daily Weather History Graph

Search for Another Location

Airport or City:

Astronomy

Apr. 16, 2018 Rise Set
Actual Time 6:40 AM CEST 8:42 PM CEST
Civil Twilight 6:03 AM CEST 9:19 PM CEST
Nautical Twilight 5:17 AM CEST 10:05 PM CEST
Astronomical Twilight 4:24 AM CEST 10:59 PM CEST
Moon 7:22 AM CEST (4/16) 9:09 PM CEST (4/16)
Length of Visible Light 15h 15m
Length of Day
14h 01m
New Moon, 0% of the Moon is Illuminated
Apr 16
New Moon
Apr 22
First Quarter
Apr 30
Full
May 8
Last Quarter
May 15
New

Hourly Weather History & Observations

Time (CEST) Temp. Windchill Dew Point Humidity Pressure Visibility Wind Dir Wind Speed Gust Speed Precip Events Conditions
12:00 AM 53 °F - 52 °F 96% 29.83 in 2 mi SSE 4.5 mph - - Rain Rain
12:25 AM 53.6 °F - 51.8 °F 94% 29.80 in - South 4.6 mph - N/A   Overcast
12:33 AM 53.6 °F - 51.8 °F 94% 29.80 in 3.1 mi South 5.8 mph - N/A   Overcast
12:55 AM 53.6 °F - 51.8 °F 94% 29.80 in 3.1 mi South 5.8 mph - N/A   Mostly Cloudy
1:00 AM 53 °F - 51 °F 92% 29.82 in 3 mi South 6.7 mph - -   Mist
1:25 AM 51.8 °F - 51.8 °F 100% 29.80 in - SSW 5.8 mph - N/A   Overcast
1:32 AM 53.6 °F - 51.8 °F 94% 29.80 in - SSW 6.9 mph - N/A   Overcast
1:36 AM 53.6 °F - 51.8 °F 94% 29.80 in 3.7 mi SSW 8.1 mph - N/A   Overcast
1:55 AM 53.6 °F - 50.0 °F 88% 29.80 in 6.2 mi SW 11.5 mph - N/A   Overcast
2:00 AM 53 °F - 49 °F 82% 29.83 in 7 mi SW 13.4 mph - - Rain Rain
2:25 AM 51.8 °F - 48.2 °F 88% 29.80 in 5.6 mi SW 10.4 mph - N/A   Overcast
2:46 AM 50.0 °F - 48.2 °F 94% 29.80 in 4.3 mi SW 8.1 mph - N/A   Overcast
2:55 AM 50.0 °F - 48.2 °F 94% 29.80 in 5.0 mi SW 6.9 mph - N/A Rain Rain
2:57 AM 50.0 °F - 48.2 °F 94% 29.80 in 3.7 mi SW 6.9 mph - N/A Rain Light Rain
3:00 AM 50 °F - 48 °F 91% 29.83 in 4 mi SW 6.7 mph - - Rain Light Rain Showers
3:03 AM 50.0 °F - 48.2 °F 94% 29.80 in 5.0 mi SW 5.8 mph - N/A Rain Light Rain
3:25 AM 50.0 °F - 48.2 °F 94% 29.80 in 5.6 mi SW 5.8 mph - N/A Rain Light Rain
3:55 AM 50.0 °F - 48.2 °F 94% 29.83 in 6.2 mi SW 6.9 mph - N/A   Overcast
4:25 AM 50.0 °F - 48.2 °F 94% 29.83 in 6.2 mi SSW 6.9 mph - N/A Rain Light Rain
4:27 AM 50.0 °F - 48.2 °F 94% 29.83 in 3.7 mi SSW 5.8 mph - N/A Rain Light Rain
4:47 AM 50.0 °F - 48.2 °F 94% 29.83 in - SSW 6.9 mph - N/A Rain Light Rain
4:55 AM 50.0 °F - 48.2 °F 94% 29.83 in 3.1 mi South 6.9 mph - N/A   Overcast
5:00 AM 49 °F - 48 °F 96% 29.85 in 3 mi South 4.5 mph - - Rain Rain
5:05 AM 48.2 °F - 48.2 °F 100% 29.83 in - South 4.6 mph - N/A   Mostly Cloudy
5:14 AM 48.2 °F - 48.2 °F 100% 29.83 in 3.7 mi South 5.8 mph - N/A   Scattered Clouds
5:25 AM 48.2 °F - 48.2 °F 100% 29.83 in 6.2 mi SSW 6.9 mph - N/A   Scattered Clouds
5:55 AM 48.2 °F - 46.4 °F 93% 29.83 in 6.2 mi SSW 8.1 mph - N/A   Unknown
6:25 AM 48.2 °F - 46.4 °F 93% 29.86 in 4.3 mi SSW 9.2 mph - N/A   Mist
6:27 AM 48.2 °F - 46.4 °F 93% 29.86 in 4.3 mi SSW 9.2 mph - N/A   Mist
6:40 AM 48.2 °F - 46.4 °F 93% 29.86 in 3.7 mi South 9.2 mph - N/A   Partly Cloudy
6:55 AM 48.2 °F - 46.4 °F 93% 29.86 in 3.1 mi SSW 9.2 mph - N/A   Mist
7:00 AM 47 °F - 46 °F 97% 29.86 in 3 mi SSW 8.9 mph - -   Mist
7:25 AM 48.2 °F - 46.4 °F 93% 29.86 in 4.3 mi SSW 8.1 mph - N/A   Partly Cloudy
7:27 AM 48.2 °F - 46.4 °F 93% 29.86 in 5.6 mi SSW 9.2 mph - N/A   Partly Cloudy
7:43 AM 48.2 °F - 46.4 °F 93% 29.86 in 6.2 mi SW 10.4 mph - N/A   Mostly Cloudy
7:55 AM 48.2 °F - 46.4 °F 93% 29.86 in 6.2 mi SW 10.4 mph - N/A   Unknown
8:00 AM 49 °F - 46 °F 87% 29.89 in 7 mi SW 11.2 mph - -   Partly Cloudy
8:25 AM 48.2 °F - 46.4 °F 93% 29.89 in 6.2 mi SW 11.5 mph - N/A   Unknown
8:27 AM 50.0 °F - 46.4 °F 87% 29.89 in 6.2 mi SW 11.5 mph - N/A   Unknown
8:48 AM 50.0 °F - 48.2 °F 94% 29.89 in 6.2 mi SW 11.5 mph - N/A   Unknown
8:55 AM 50.0 °F - 46.4 °F 87% 29.89 in 6.2 mi SW 10.4 mph - N/A   Unknown
9:00 AM 50 °F - 47 °F 88% 29.91 in 7 mi SW 11.2 mph - -   Mostly Cloudy
9:10 AM 50.0 °F - 48.2 °F 94% 29.89 in 6.2 mi SW 11.5 mph - N/A   Overcast
9:25 AM 50.0 °F - 46.4 °F 87% 29.89 in 6.2 mi SW 13.8 mph - N/A   Mostly Cloudy
9:35 AM 50.0 °F - 46.4 °F 87% 29.92 in 6.2 mi SW 11.5 mph - N/A   Overcast
9:55 AM 50.0 °F - 48.2 °F 94% 29.92 in 6.2 mi SW 12.7 mph - N/A   Overcast
10:00 AM 51 °F - 47 °F 82% 29.92 in 9 mi SW 13.4 mph - -   Overcast
10:25 AM 51.8 °F - 46.4 °F 82% 29.92 in 6.2 mi SW 15.0 mph - N/A   Overcast
10:55 AM 51.8 °F - 46.4 °F 82% 29.92 in 6.2 mi SW 16.1 mph - N/A   Overcast
11:00 AM 51 °F - 47 °F 83% 29.94 in 9 mi SW 15.7 mph - -   Partly Cloudy
11:25 AM 51.8 °F - 46.4 °F 82% 29.95 in 6.2 mi SW 16.1 mph - N/A   Overcast
11:55 AM 51.8 °F - 48.2 °F 88% 29.95 in 6.2 mi SW 19.6 mph - N/A   Mostly Cloudy
12:00 PM 51 °F - 48 °F 84% 29.97 in 7 mi SW 17.9 mph - -   Overcast
12:25 PM 51.8 °F - 48.2 °F 88% 29.95 in 6.2 mi WSW 18.4 mph - N/A   Mostly Cloudy
12:55 PM 51.8 °F - 48.2 °F 88% 29.95 in 6.2 mi WSW 18.4 mph - N/A   Mostly Cloudy
1:00 PM 52 °F - 47 °F 78% 29.98 in 7 mi SW 17.9 mph - -   Partly Cloudy
1:25 PM 51.8 °F - 46.4 °F 82% 29.98 in 6.2 mi SW 18.4 mph - N/A   Scattered Clouds
1:55 PM 51.8 °F - 46.4 °F 82% 29.98 in 6.2 mi SW 18.4 mph - N/A   Unknown
2:00 PM 52 °F - 47 °F 77% 29.99 in 8 mi SW 17.9 mph - -   Partly Cloudy
2:25 PM 51.8 °F - 46.4 °F 82% 29.98 in 6.2 mi SW 16.1 mph - N/A   Overcast
2:55 PM 50.0 °F - 46.4 °F 87% 30.01 in 6.2 mi SW 19.6 mph - N/A   Overcast
3:00 PM 52 °F - 47 °F 79% 30.01 in 7 mi SW 20.1 mph - -   Overcast
3:25 PM 51.8 °F - 46.4 °F 82% 30.01 in 6.2 mi SW 18.4 mph - N/A   Partly Cloudy
3:26 PM 51.8 °F - 48.2 °F 88% 30.01 in 6.2 mi SW 17.3 mph - N/A   Scattered Clouds
3:55 PM 51.8 °F - 48.2 °F 88% 30.01 in 6.2 mi WSW 18.4 mph - N/A   Partly Cloudy
4:00 PM 52 °F - 47 °F 78% 30.02 in 7 mi SW 17.9 mph - -   Partly Cloudy
4:25 PM 51.8 °F - 46.4 °F 82% 30.01 in 6.2 mi SW 18.4 mph - N/A   Unknown
4:55 PM 51.8 °F - 46.4 °F 82% 30.01 in 6.2 mi SW 17.3 mph - N/A   Unknown
5:00 PM 52 °F - 47 °F 79% 30.03 in 7 mi SW 17.9 mph - -   Partly Cloudy
5:25 PM 51.8 °F - 46.4 °F 82% 30.01 in 6.2 mi SW 16.1 mph - N/A   Unknown
5:55 PM 51.8 °F - 46.4 °F 82% 30.04 in 6.2 mi SW 15.0 mph - N/A   Unknown
6:25 PM 51.8 °F - 46.4 °F 82% 30.04 in 6.2 mi SW 13.8 mph - N/A   Unknown
6:29 PM 51.8 °F - 46.4 °F 82% 30.04 in 6.2 mi SW 15.0 mph - N/A   Unknown
6:55 PM 50.0 °F - 46.4 °F 87% 30.04 in 6.2 mi SW 15.0 mph - N/A   Unknown
7:00 PM 51 °F - 45 °F 74% 30.04 in 8 mi SW 13.4 mph - -  
7:25 PM 50.0 °F - 44.6 °F 82% 30.04 in 6.2 mi SW 13.8 mph - N/A   Unknown
7:55 PM 50.0 °F - 44.6 °F 82% 30.04 in 6.2 mi SW 13.8 mph - N/A   Unknown
8:00 PM 49 °F - 44 °F 77% 30.06 in 9 mi SW 13.4 mph - -   Partly Cloudy
8:03 PM 48.2 °F - 44.6 °F 87% 30.04 in 6.2 mi SW 12.7 mph - N/A   Unknown
8:25 PM 48.2 °F - 44.6 °F 87% 30.06 in 6.2 mi SW 11.5 mph - N/A   Unknown
8:55 PM 46.4 °F 41.9 °F 42.8 °F 87% 30.06 in 6.2 mi SW 9.2 mph - N/A   Unknown
9:00 PM 47 °F - 43 °F 82% 30.08 in 9 mi SW 8.9 mph - -  
9:25 PM 46.4 °F 41.9 °F 42.8 °F 87% 30.06 in 6.2 mi SW 9.2 mph - N/A   Unknown
9:55 PM 46.4 °F 42.4 °F 42.8 °F 87% 30.09 in 6.2 mi SSW 8.1 mph - N/A   Unknown
10:00 PM 46 °F - 43 °F 85% 30.10 in 7 mi SSW 8.9 mph - -   Partly Cloudy
10:25 PM 44.6 °F 40.2 °F 42.8 °F 93% 30.09 in 6.2 mi SSW 8.1 mph - N/A   Unknown
10:55 PM 44.6 °F 40.7 °F 42.8 °F 93% 30.09 in 6.2 mi SSW 6.9 mph - N/A   Unknown
11:25 PM 44.6 °F 40.7 °F 41.0 °F 87% 30.09 in 6.2 mi South 6.9 mph - N/A   Unknown
11:29 PM 44.6 °F 40.7 °F 41.0 °F 87% 30.09 in 6.2 mi South 6.9 mph - N/A   Unknown
11:55 PM 44.6 °F 40.2 °F 41.0 °F 87% 30.09 in 6.2 mi SSW 8.1 mph - N/A   Unknown